Tracking 26442 objects as of 6-Dec-2022
HD Live streaming from Space Station
objects crossing your sky now

USA 82

Track USA 82 now!
USA 82 is classified as:


NORAD ID: 22009
Int'l Code: 1992-037A
Perigee: 36,173.1 km
Apogee: 36,244.2 km
Inclination: 13.4 °
Period: 1,457.3 minutes
Semi major axis: 42579 km
RCS: Unknown
Launch date: July 2, 1992
Source: United States (US)
Launch site: AIR FORCE EASTERN TEST RANGE (AFETR)

Super High Frequency (SHF) for U.S. government and military; sophisticated survivability enhancement; worldwide, longhaul coverage; X-band.
aabbcc
Your satellite tracking list
Your tracking list is empty




NASA's NSSDC Master Catalog

Two Line Element Set (TLE):
1 22009U 92037A   22340.14867795  .00000009  00000-0  00000+0 0  9990
2 22009  13.3755  18.5500 0008348  17.1858 348.8975  0.98809908 12391
Source of the keplerian elements: McCants